Torna al catalogo

STARLINK-30036

AttivoComunicazioniVLEO
NORAD 56692·PAYLOAD·🇺🇸 United States

Lanciato May 19, 2023 da Cape Canaveral Space Force Station

Loading…

Prossimi Passaggi (prossime 24 ore)

TLE

AggiornatoSource: CelesTrak SupGP

Epoca: Sep 14, 2026, 21:10 UTC

1 56692C 23067E   26257.88243056 -.00023617  00000+0 -85557-3 0  2574
2 56692  43.0012 292.7679 0001466 260.4870 156.9433 15.27583568    18

Traccia STARLINK-30036 in tempo reale con AllMySat

Download on the App Store